Torna al catalogo

CZ-3C DEB

AttivoGTO
NORAD 39346·DEBRIS·🇨🇳 China

Lanciato Oct 31, 2010 da Xichang Satellite Launch Center

Loading…

TLE

In scadenzaSource: Space-Track

Epoca: Sep 14, 2026, 05:23 UTC

1 39346U 10057L   26257.22449683  .00000142  00000-0  48174-2 0  9991
2 39346  20.0424 138.3226 7198652  77.2767 348.2991  2.17977775102885

Traccia CZ-3C DEB in tempo reale con AllMySat

Download on the App Store